[[{"header":{"parameterUnit":"m.s-1","parameterCategory":1,"la1":30.2991,"la2":30.254,"lo1":-89.0895,"lo2":-89.0444,"dy":0.0017,"dx":0.0017,"nx":28,"ny":28,"refTime":"2024-02-07T09:00:00:Z","depth":0,"parameterNumber":2,"parameterNumberName":"U-component_of_WINDS"},"data":[0,0,0,0,0,0,0,0,0,0,0,0,0,0,0,0,0,0,0,0,0,0,0,0,0,0,0,0,0,0,0,0,0,0,0,0,0,0,0,0,0,0,0,0,0,0,0,0,0,0,0,0,0,0,0,0,0,0,-0.711,-0.711,0,-0.7108,-0.7108,-0.7108,-0.7094,-0.7093,-0.7093,-0.7093,-0.7092,-0.7092,-0.7092,0,0,0,0,0,0,0,0,0,0,0,0,0,-0.7101,-0.7101,-0.711,-0.711,-0.711,-0.7108,-0.7108,-0.7108,-0.7094,-0.7093,-0.7093,-0.7092,-0.7091,-0.7092,-0.7092,0,0,0,0,0,0,0,0,0,0,0,0,0,-0.7102,-0.7101,-0.711,-0.7102,-0.7102,-0.7108,-0.7108,-0.7108,-0.7094,-0.7093,-0.7093,-0.7092,-0.7091,-0.7092,-0.7092,-0.7106,0,0,-0.7094,-0.7094,0,0,0,0,0,0,0,0,-0.7102,-0.7103,-0.7103,-0.7103,-0.7102,-0.71,-0.7104,-0.7107,-0.7094,-0.7097,-0.7093,-0.7092,-0.7095,-0.7095,-0.7096,-0.7106,-0.7106,-0.7094,-0.7094,-0.7094,-0.7094,0,0,0,0,0,0,0,-0.7102,-0.7103,-0.7109,-0.7103,-0.7103,-0.7099,-0.7099,-0.7105,-0.7099,-0.7096,-0.7095,-0.7095,-0.7095,-0.7096,-0.7096,-0.7106,-0.7094,-0.7094,-0.7094,-0.7095,-0.7126,-0.7126,0,0,0,0,0,0,-0.7103,-0.7103,-0.7109,-0.7109,-0.7101,-0.71,-0.7099,-0.7102,-0.7099,-0.7098,-0.7096,-0.7095,-0.7095,-0.7095,-0.7096,-0.7111,-0.7094,-0.7095,-0.7095,-0.7125,-0.7126,-0.7126,0,0,0,0,0,0,-0.7103,-0.7104,-0.7109,-0.7106,-0.7106,-0.71,-0.7103,-0.7102,-0.7103,-0.7098,-0.7097,-0.7098,-0.7095,-0.7095,-0.7103,-0.7111,-0.7095,-0.7095,-0.7125,-0.7125,-0.7126,-0.7142,0,0,0,0,0,0,-0.7103,-0.7104,-0.7109,-0.7106,-0.7106,-0.7117,-0.7104,-0.7102,-0.7104,-0.7102,-0.71,-0.7099,-0.7094,-0.7103,-0.7104,-0.7111,-0.7096,-0.7124,-0.7125,-0.7126,-0.714,-0.7143,-0.7145,0,0,0,0,0,-0.7102,-0.7114,-0.7109,-0.711,-0.7113,-0.7117,-0.7117,-0.7111,-0.7104,-0.7109,-0.7106,-0.7099,-0.711,-0.7104,-0.7105,-0.7112,-0.7123,-0.7125,-0.7126,-0.7139,-0.7142,-0.7145,0,0,0,0,0,0,-0.7118,-0.7113,-0.7108,-0.7119,-0.7118,-0.7115,-0.7121,-0.7115,-0.7117,-0.7115,-0.7108,-0.7107,-0.7116,-0.7115,-0.7108,-0.7125,-0.7115,-0.7117,-0.7125,-0.7128,-0.713,-0.713,-0.7096,0,0,0,0,0,-0.7123,-0.7127,-0.7122,-0.7132,-0.7132,-0.7127,-0.7128,-0.7124,-0.7123,-0.7123,-0.7121,-0.712,-0.7123,-0.7126,-0.7129,-0.714,-0.7139,-0.7146,-0.7148,-0.715,-0.7152,-0.7157,-0.716,-0.7131,-0.7131,-0.713,0,0,-0.7133,-0.7131,-0.7134,-0.7135,-0.7135,-0.7139,-0.7127,-0.7132,-0.7135,-0.7124,-0.7131,-0.7129,-0.7129,-0.7138,-0.7142,-0.7138,-0.7159,-0.7152,-0.7153,-0.7154,-0.7158,-0.7161,-0.7164,-0.7131,-0.7131,-0.7131,0,0,-0.7153,-0.7152,-0.7159,-0.7159,-0.7157,-0.7153,-0.7155,-0.7152,-0.715,-0.7157,-0.7149,-0.7153,-0.7158,-0.7158,-0.7158,-0.7177,-0.7171,-0.7179,-0.719,-0.7196,-0.7198,-0.72,-0.7206,-0.7209,-0.718,-0.718,-0.718,0,-0.7166,-0.7171,-0.7164,-0.717,-0.717,-0.716,-0.7168,-0.7167,-0.7167,-0.7168,-0.7162,-0.7169,-0.7168,-0.7177,-0.7181,-0.7182,-0.7184,-0.7179,-0.7198,-0.72,-0.7202,-0.7208,-0.721,-0.7181,-0.7181,-0.7181,-0.7181,0,-0.7187,-0.7191,-0.7197,-0.7196,-0.7198,-0.7205,-0.7198,-0.7201,-0.7196,-0.7192,-0.7199,-0.7197,-0.7199,-0.7201,-0.7196,-0.7209,-0.7206,-0.72,-0.719,-0.7206,-0.7211,-0.7213,-0.7182,-0.7182,-0.7182,-0.7181,0,0,-0.7217,-0.7212,-0.7214,-0.7213,-0.7211,-0.7214,-0.722,-0.7221,-0.7223,-0.7223,-0.7228,-0.7232,-0.7226,-0.7227,-0.7222,-0.7226,-0.7241,-0.7219,-0.7219,-0.7223,-0.7254,-0.7259,-0.7261,-0.7236,-0.7237,-0.7237,-0.7254,0,-0.7236,-0.7245,-0.7238,-0.7249,-0.7252,-0.7242,-0.7247,-0.7246,-0.7243,-0.7246,-0.7242,-0.7245,-0.7237,-0.7237,-0.7242,-0.7238,-0.7247,-0.7237,-0.724,-0.724,-0.724,-0.7264,-0.7269,-0.7285,-0.7256,-0.7256,-0.7257,0,-0.7259,-0.7259,-0.727,-0.7266,-0.7267,-0.7272,-0.7272,-0.7275,-0.7273,-0.727,-0.7271,-0.7264,-0.727,-0.726,-0.7267,-0.726,-0.7261,-0.726,-0.726,-0.726,-0.7249,-0.7264,-0.729,-0.7292,-0.726,-0.726,-0.7259,0,-0.7279,-0.7282,-0.7289,-0.7289,-0.7284,-0.7288,-0.7286,-0.7284,-0.7285,-0.7285,-0.7286,-0.7287,-0.7287,-0.7288,-0.7282,-0.7276,-0.729,-0.728,-0.7287,-0.7287,-0.7291,-0.729,-0.7317,-0.7292,-0.7292,-0.7292,-0.7292,0,-0.7301,-0.7307,-0.7298,-0.7302,-0.7309,-0.7301,-0.7309,-0.7306,-0.7304,-0.7307,-0.7299,-0.7302,-0.7294,-0.7297,-0.7292,-0.7298,-0.7299,-0.7296,-0.7295,-0.7297,-0.7297,-0.7297,-0.7296,-0.7292,-0.7292,-0.7292,-0.7292,0,-0.7324,-0.7318,-0.7325,-0.732,-0.7319,-0.7324,-0.732,-0.7323,-0.7319,-0.7323,-0.7324,-0.7318,-0.732,-0.7314,-0.7316,-0.7313,-0.7321,-0.7318,-0.7322,-0.7321,-0.7328,-0.7327,-0.7355,-0.7358,-0.7332,-0.7332,-0.7332,0,-0.7338,-0.7343,-0.7338,-0.734,-0.7338,-0.7341,-0.7341,-0.7334,-0.7335,-0.7333,-0.7337,-0.7338,-0.7339,-0.7343,-0.7339,-0.734,-0.7336,-0.7346,-0.7336,-0.7338,-0.7336,-0.7335,-0.7335,-0.7348,-0.7348,-0.7348,-0.7349,0,-0.7363,-0.736,-0.7361,-0.7361,-0.7362,-0.7362,-0.7361,-0.7362,-0.7354,-0.7356,-0.7358,-0.7358,-0.7359,-0.7361,-0.7361,-0.7359,-0.7352,-0.7352,-0.7353,-0.7355,-0.7356,-0.7355,-0.7326,-0.7351,-0.7351,-0.7351,-0.735,-0.735,-0.7382,-0.7386,-0.7383,-0.7384,-0.7382,-0.7382,-0.7384,-0.738,-0.7382,-0.7382,-0.7377,-0.738,-0.7378,-0.7377,-0.7376,-0.7377,-0.7373,-0.7376,-0.7376,-0.7377,-0.7378,-0.7356,-0.7378,-0.7377,-0.7377,-0.7377,-0.7377,0,-0.7406,-0.7403,-0.7405,-0.7403,-0.7404,-0.7398,-0.7396,-0.7398,-0.74,-0.7398,-0.7399,-0.7401,-0.7402,-0.7397,-0.7398,-0.74,-0.7397,-0.74,-0.74,-0.7399,-0.7382,-0.738,-0.7403,-0.7403,-0.7403,-0.7403,-0.7403,-0.7403,-0.7419,-0.7424,-0.742,-0.7424,-0.7422,-0.7424,-0.7424,-0.7423,-0.7421,-0.7423,-0.7424,-0.7421,-0.7418,-0.7418,-0.7419,-0.7417,-0.7418,-0.7422,-0.742,-0.7403,-0.7401,-0.7398,-0.7397,-0.7422,-0.7422,-0.7437,-0.7437,-0.7437]},{"header":{"parameterUnit":"m.s-1","parameterCategory":1,"la1":30.2991,"la2":30.254,"lo1":-89.0895,"lo2":-89.0444,"dy":0.0017,"dx":0.0017,"nx":28,"ny":28,"refTime":"2024-02-07T09:00:00:Z","depth":0,"parameterNumber":3,"parameterNumberName":"V-component_of_WINDS"},"data":[0,0,0,0,0,0,0,0,0,0,0,0,0,0,0,0,0,0,0,0,0,0,0,0,0,0,0,0,0,0,0,0,0,0,0,0,0,0,0,0,0,0,0,0,0,0,0,0,0,0,0,0,0,0,0,0,0,0,-2.2356,-2.2357,0,-2.2472,-2.2473,-2.2474,-2.2501,-2.25,-2.2499,-2.2498,-2.2616,-2.262,-2.2624,0,0,0,0,0,0,0,0,0,0,0,0,0,-2.2159,-2.2163,-2.2356,-2.2358,-2.2359,-2.2471,-2.2473,-2.2475,-2.2501,-2.25,-2.2499,-2.2498,-2.2615,-2.262,-2.2624,0,0,0,0,0,0,0,0,0,0,0,0,0,-2.2257,-2.2164,-2.2356,-2.2386,-2.239,-2.2471,-2.2473,-2.2475,-2.2501,-2.25,-2.2499,-2.2498,-2.2614,-2.2619,-2.2625,-2.2685,0,0,-2.2643,-2.2645,0,0,0,0,0,0,0,0,-2.2251,-2.2264,-2.238,-2.2384,-2.2388,-2.2471,-2.2447,-2.2545,-2.2501,-2.2459,-2.2498,-2.2497,-2.2569,-2.2578,-2.2603,-2.269,-2.2695,-2.2643,-2.2647,-2.2649,-2.2651,0,0,0,0,0,0,0,-2.2244,-2.2259,-2.2402,-2.2382,-2.2387,-2.2394,-2.2406,-2.2466,-2.2519,-2.2462,-2.2465,-2.2478,-2.2571,-2.2597,-2.2605,-2.2697,-2.2643,-2.2648,-2.2652,-2.2654,-2.2842,-2.2843,0,0,0,0,0,0,-2.2232,-2.2253,-2.2398,-2.2405,-2.2315,-2.2398,-2.2412,-2.2445,-2.2519,-2.2529,-2.2479,-2.2479,-2.2587,-2.2599,-2.261,-2.2685,-2.2649,-2.2655,-2.2658,-2.284,-2.2842,-2.2844,0,0,0,0,0,0,-2.2228,-2.2245,-2.2393,-2.233,-2.2349,-2.2403,-2.244,-2.2448,-2.2474,-2.2531,-2.2541,-2.2495,-2.2587,-2.2602,-2.2666,-2.269,-2.2657,-2.2663,-2.2838,-2.2841,-2.2843,-2.2837,0,0,0,0,0,0,-2.2222,-2.2243,-2.2266,-2.233,-2.2353,-2.2448,-2.2441,-2.2451,-2.2484,-2.2485,-2.2549,-2.2559,-2.2587,-2.2658,-2.2672,-2.2697,-2.2667,-2.2837,-2.2839,-2.2842,-2.2835,-2.2838,-2.2841,0,0,0,0,0,-2.2215,-2.2259,-2.2267,-2.2285,-2.2383,-2.2449,-2.2462,-2.2494,-2.2486,-2.251,-2.2547,-2.2557,-2.2685,-2.2664,-2.2681,-2.2708,-2.2835,-2.2839,-2.2842,-2.2833,-2.2838,-2.2841,0,0,0,0,0,0,-2.2196,-2.2268,-2.2278,-2.2344,-2.239,-2.2453,-2.2484,-2.2497,-2.2546,-2.2545,-2.2583,-2.2597,-2.266,-2.2691,-2.2666,-2.2771,-2.276,-2.2767,-2.2748,-2.2752,-2.2755,-2.2746,-2.2672,0,0,0,0,0,-2.22,-2.2248,-2.2308,-2.2361,-2.2384,-2.243,-2.246,-2.2481,-2.2531,-2.255,-2.2592,-2.2639,-2.269,-2.2723,-2.2773,-2.284,-2.2855,-2.2867,-2.287,-2.2873,-2.2878,-2.2916,-2.2923,-2.2855,-2.2855,-2.2855,0,0,-2.2208,-2.2253,-2.2281,-2.2359,-2.2397,-2.2446,-2.2446,-2.2498,-2.2535,-2.2558,-2.2622,-2.2654,-2.271,-2.2776,-2.2807,-2.2803,-2.29,-2.2877,-2.2878,-2.2882,-2.292,-2.2927,-2.2932,-2.2857,-2.2856,-2.2856,0,0,-2.2247,-2.2286,-2.2335,-2.2373,-2.2432,-2.2462,-2.2474,-2.2536,-2.2558,-2.2623,-2.2642,-2.2687,-2.2774,-2.2813,-2.2844,-2.2901,-2.2912,-2.2916,-2.2932,-2.2969,-2.2975,-2.2979,-2.3,-2.3007,-2.2921,-2.2921,-2.2921,0,-2.2249,-2.2324,-2.2358,-2.2409,-2.2443,-2.2467,-2.2517,-2.2553,-2.2625,-2.2648,-2.2643,-2.2754,-2.2793,-2.2869,-2.2883,-2.2907,-2.2922,-2.2908,-2.2971,-2.2976,-2.2981,-2.3001,-2.3009,-2.2921,-2.2921,-2.2921,-2.2921,0,-2.2324,-2.2375,-2.2408,-2.2477,-2.2515,-2.2565,-2.2607,-2.2641,-2.266,-2.2691,-2.2758,-2.2806,-2.2867,-2.2886,-2.2904,-2.2966,-2.2962,-2.2963,-2.2954,-2.2987,-2.3007,-2.3014,-2.2922,-2.2922,-2.2922,-2.2921,0,0,-2.2353,-2.2441,-2.2452,-2.2485,-2.2552,-2.2592,-2.2644,-2.2704,-2.2733,-2.2782,-2.2827,-2.2901,-2.2904,-2.294,-2.2962,-2.2995,-2.3037,-2.2993,-2.2995,-2.3,-2.3108,-2.3106,-2.3114,-2.3046,-2.3047,-2.3048,-2.3104,0,-2.24,-2.2493,-2.2526,-2.2603,-2.2652,-2.2676,-2.2722,-2.2768,-2.2799,-2.2846,-2.288,-2.2932,-2.2932,-2.2954,-2.2987,-2.3025,-2.3059,-2.3021,-2.3088,-2.309,-2.3072,-2.3124,-2.3122,-2.3171,-2.3111,-2.3113,-2.3114,0,-2.2467,-2.2517,-2.2599,-2.2661,-2.2683,-2.2723,-2.2781,-2.2825,-2.2879,-2.2899,-2.294,-2.2961,-2.3017,-2.3005,-2.3083,-2.3056,-2.3086,-2.3109,-2.3111,-2.3118,-2.3103,-2.3132,-2.3188,-2.3195,-2.3126,-2.3125,-2.3124,0,-2.2479,-2.2568,-2.2629,-2.2656,-2.273,-2.2757,-2.279,-2.2842,-2.2876,-2.2928,-2.2951,-2.3008,-2.3039,-2.3083,-2.3119,-2.3107,-2.3194,-2.3184,-2.3213,-2.3212,-2.3229,-2.3227,-2.329,-2.3249,-2.3249,-2.3249,-2.3249,0,-2.2528,-2.2577,-2.2636,-2.2673,-2.2729,-2.2767,-2.2822,-2.2856,-2.2903,-2.2947,-2.2973,-2.3014,-2.306,-2.3107,-2.3136,-2.3197,-2.3211,-2.3229,-2.3236,-2.3227,-2.3224,-2.3246,-2.3243,-2.3251,-2.325,-2.325,-2.325,0,-2.2551,-2.2592,-2.266,-2.2725,-2.2743,-2.2781,-2.2837,-2.2875,-2.2908,-2.2964,-2.298,-2.3032,-2.3089,-2.313,-2.3204,-2.3224,-2.3289,-2.3296,-2.3271,-2.3274,-2.33,-2.3297,-2.3378,-2.3391,-2.3342,-2.3342,-2.3342,0,-2.2579,-2.2617,-2.2687,-2.2719,-2.2751,-2.2802,-2.2838,-2.2878,-2.2914,-2.2979,-2.3008,-2.3068,-2.3117,-2.3209,-2.3253,-2.331,-2.3319,-2.3343,-2.3327,-2.3317,-2.3319,-2.3316,-2.332,-2.3345,-2.3346,-2.3346,-2.3346,0,-2.2624,-2.2643,-2.2693,-2.2751,-2.2793,-2.284,-2.2888,-2.2913,-2.2962,-2.3001,-2.3061,-2.3099,-2.3176,-2.3234,-2.3296,-2.333,-2.3346,-2.3351,-2.3361,-2.3351,-2.3335,-2.3344,-2.3277,-2.3349,-2.3348,-2.3348,-2.3348,-2.3348,-2.2651,-2.2686,-2.2741,-2.2797,-2.2837,-2.2881,-2.292,-2.2959,-2.3009,-2.3074,-2.3095,-2.3157,-2.3211,-2.3296,-2.3331,-2.338,-2.3379,-2.3393,-2.3396,-2.3399,-2.3398,-2.3327,-2.3392,-2.3392,-2.3392,-2.3392,-2.3392,0,-2.2697,-2.2734,-2.2785,-2.2851,-2.2895,-2.2907,-2.2962,-2.2997,-2.3051,-2.3101,-2.315,-2.3218,-2.3276,-2.3326,-2.3386,-2.3416,-2.3425,-2.3431,-2.3428,-2.3436,-2.3396,-2.3382,-2.3422,-2.3422,-2.3422,-2.3422,-2.3422,-2.3422,-2.2726,-2.2787,-2.2813,-2.2895,-2.2932,-2.2993,-2.3022,-2.3064,-2.3104,-2.318,-2.3228,-2.326,-2.331,-2.3375,-2.3429,-2.3442,-2.3463,-2.3466,-2.3481,-2.3442,-2.3439,-2.3435,-2.3422,-2.347,-2.3471,-2.3517,-2.3518,-2.3518]}]]